Powrót do katalogu

ONEWEB-0164

AktywnyŁącznośćPO
NORAD 48063·PAYLOAD·🇬🇧 United Kingdom

Wystrzelony Mar 25, 2021 z Vostochny Cosmodrome

Loading…

Następne Przeloty (najbliższe 24 godziny)

TLE

ŚwieżeSource: CelesTrak SupGP

Epoka: Sep 14, 2026, 15:01 UTC

1 48063C 21025X   26257.62623102  .00000540  00000+0  14797-2 0  2570
2 48063  87.8916 302.4334 0001995  95.8517   5.4396 13.13466969    16

Śledź ONEWEB-0164 w czasie rzeczywistym z AllMySat

Download on the App Store